STARLINK-32234 (60414 NORAD) Tracking and Keplerian Element Data

This shows tracking and keplerian element data for the satellite.

Feedback or suggestion? Click here.




ElementValue
Catalog60414
NameSTARLINK-32234
Epoch Orbit1104
Epoch Day286.74003592
Epoch Year2024
RAAN105.3347
Inclination53.1591
Eccentricity0.0001631
Argument of Perigee74.5977
Mean Anonmoly285.5203
Mean Motion15.30190884
Decay Rate6.57E-06
L11 60414U 24141S 24286.74003592 .00000657 00000+0 34329-4 0 9991
L22 60414 53.1591 105.3347 0001631 74.5977 285.5203 15.30190884 11044



Live tracking and technical data element details for STARLINK-32234 (NORAD 60414). STARLINK-32234 can be tracked NOW for your location showing map with azimuth and elevation plus other details from your city location.







IsCatalogInMostPopularTable: catalog: 60414, numindb: 8
Update: records affected: 1



GetName: 60414 STARLINK-32234

Hit Count: updated at: Tue, 03 Dec 2024 01:20:42 GMT